Regional Weather Roundup
Issued by NWS

Home | Current Version | Previous Version | Graphics & Text | Print | Product List | Glossary On
Versions: 1 2 3 4 5 6 7 8 9 10 11 12 13 14 15 16 17 18 19 20 21 22 23 24 25 26 27 28 29 30 31 32 33 34 35 36 37 38 39 40 41 42 43 44 45 46 47 48 49 50
000
ASUS43 KMKX 012300
RWRWI

WISCONSIN REGIONAL WEATHER ROUNDUP
NATIONAL WEATHER SERVICE MILWAUKEE/SULLIVAN WI
600 PM CDT MON SEP 01 2014

NOTE: "FAIR" INDICATES FEW OR NO CLOUDS BELOW 12,000 FEET WITH NO
SIGNIFICANT WEATHER AND/OR OBSTRUCTIONS TO VISIBILITY.

WIZ001-002-006>008-014>016-023>028-020000-
NORTHWEST WISCONSIN

CITY           SKY/WX    TMP DP  RH WIND       PRES   REMARKS
SUPERIOR ARPT  SUNNY     72  53  50 NW10      29.69S
ASHLAND        MOSUNNY   71  59  65 W8        29.69R
HAYWARD        MOSUNNY   71  55  56 VRB3      29.73R
SIREN          SUNNY     71  52  51 NW9       29.74S
RICE LAKE      MOSUNNY   72  53  51 W13       29.76R
LADYSMITH      MOSUNNY   72  56  56 W12G18    29.74S
EAU CLAIRE     SUNNY     73  56  54 W13       29.74R
MENOMONIE      CLEAR     75  54  47 W9G17     29.75R
NEW RICHMOND   SUNNY     73  53  48 W9        29.76S
OSCEOLA        SUNNY     74  54  49 W10       29.77S
$$

WIZ003>005-009-010-017-018-020000-
NORTH CENTRAL WISCONSIN

CITY           SKY/WX    TMP DP  RH WIND       PRES   REMARKS
WOODRUFF       MOSUNNY   72  58  60 W9        29.71R
RHINELANDER    SUNNY     70  54  56 W13       29.72R
EAGLE RIVER    MOSUNNY   70  52  52 W9G18     29.69R
LAND O LAKES   SUNNY     69  57  65 W8        29.70R
PHILLIPS       PTSUNNY   70  56  61 W8        29.71S
TOMAHAWK       PTSUNNY   69  55  62 W10       29.72R
MEDFORD        SUNNY     70  58  66 W10G17    29.74R
MERRILL        SUNNY     72  57  58 W15G22    29.72R
$$

WIZ029-030-035-036-043>047-020000-
CENTRAL WISCONSIN

CITY           SKY/WX    TMP DP  RH WIND       PRES   REMARKS
WAUSAU         SUNNY     73  58  59 W12G22    29.72R
MOSINEE        SUNNY     72  57  60 W14G20    29.74R
MARSHFIELD     SUNNY     73  58  59 NW12      29.74R
STEVENS POINT  MOSUNNY   73  59  62 W13G20    29.72R
WAUPACA        SUNNY     78  63  59 W8        29.71R HX  80
WAUTOMA        NOT AVBL
WISC RAPIDS    SUNNY     75  61  61 W9        29.74R
CAMP DOUGLAS   NOT AVBL
$$

WIZ011>013-019>022-031-037>040-048>050-020000-
NORTHEAST WISCONSIN

CITY           SKY/WX    TMP DP  RH WIND       PRES   REMARKS
ANTIGO         SUNNY     71  58  63 W13G21    29.71S
STURGEON BAY   MOSUNNY   73  64  73 SW14      29.68R
GREEN BAY      MOSUNNY   75  65  70 W9        29.69R
MANITOWOC      NOT AVBL
APPLETON       PTSUNNY   73  63  68 W13       29.71R
CLINTONVILLE   MOSUNNY   75  61  60 W10G17    29.69R
OSHKOSH        CLOUDY    73  66  78 W8        29.72R
$$

WIZ032>034-041-042-053>061-020000-
SOUTHWEST WISCONSIN

CITY           SKY/WX    TMP DP  RH WIND       PRES   REMARKS
LA CROSSE      SUNNY     79  59  50 NW10      29.75R HX  80
SPARTA         SUNNY     75  59  57 W10       29.76R
VIROQUA        MOCLDY    74  62  67 W5        29.78S
BOSCOBEL       SUNNY     78  61  55 NW8       29.78R HX  80
PRAIRIE DU CHI MOSUNNY   77  61  57 W10       29.77R
PLATTEVILLE    FAIR      76  65  68 W12G18    29.80R
$$

WIZ056-057-062-063-064-067-068-020000-
SOUTH CENTRAL WISCONSIN

CITY           SKY/WX    TMP DP  RH WIND       PRES   REMARKS
BARABOO/DELLS  PTSUNNY   71  60  69 W5        29.76R
LONE ROCK      NOT AVBL
WATERTOWN      PTSUNNY   75  67  76 W9        29.74R
MADISON        PTSUNNY   74  67  78 VRB6      29.75R
MIDDLETON      FAIR      75  67  75 W8        29.76S
MONROE         PTSUNNY   72  64  78 W10       29.77S
JANESVILLE     PTSUNNY   79  63  57 W12       29.75R HX  80
$$

WIZ051-052-058>065-066-070>072-020000-
SOUTHEAST WISCONSIN

CITY           SKY/WX    TMP DP  RH WIND       PRES   REMARKS
MILWAUKEE      PTSUNNY   80  63  55 W13       29.73R HX  81
WAUKESHA       PTSUNNY   73  63  68 SW15G23   29.75R
MILWAUKEE/TIMM MOSUNNY   77  61  57 W13G20    29.74R
RACINE         MOSUNNY   80  65  59 W10G17    29.75R HX  82
BURLINGTON     MOSUNNY   77  64  65 SW14      29.74S
KENOSHA        MOSUNNY   79  67  66 SW10      29.75R HX  81
FOND DU LAC    CLOUDY    69  61  75 W12G21    29.74R
SHEBOYGAN      MOSUNNY   76  65  68 SW13      29.71R
WEST BEND      MOSUNNY   77  63  61 W12       29.73R
JUNEAU         RAIN      73  65  78 W8        29.75R
$$

LSZ147-162-020000-
LAKE SUPERIOR

STATION/POSITION TIME  TEMP    WIND        PRES    WAVE
                       AIR SEA DIR/SP/G            HT/PER
                 (UTC) (F)     (DEG/KT/KT) (MB)    (FT/S)
W MID LAKE BUOY  2150   62 57  240/ 16/ 17 1002.4R   2/ 4
DEVILS ISLAND    2200   65     250/ 14/ 18 1003.7R
PORT WING        2200   71     250/  9/ 13 1004.7
SAXON HARBOR     2200   71     280/  4/ 10 1005.1R
$$

LMZ867-665-643>646-020000-
LAKE MICHIGAN

STATION/POSITION TIME  TEMP    WIND        PRES    WAVE
                       AIR SEA DIR/SP/G            HT/PER
                 (UTC) (F)     (DEG/KT/KT) (MB)    (FT/S)
N MID LAKE BUOY  2150   67 65  220/ 12/ 12 1003.4R   3/ 5
NORTHPORT PIER   2200   74     240/  4/ 12 1003.7R
KEWAUNEE LAKESHO 2200   75     260/ 11/ 16 1003.7F
SHEBOYGAN LAKESH 2200   76 57  250/ 15/ 17 1005.4S
ATWATER BUOY     2200   74     240/ 17/ 21 1007.3R
MILWAUKEE LAKESH 2200   80     270/ 16/ 24   N/A
S MID LAKE BUOY  2150   74 70  220/ 12/ 14 1006.4S   2/ 5
KENOSHA   LAKESH 2200   81     250/ 12/ 22 1006.8R
$$

TC  - TEMPERATURE IN CELSIUS
VSB - VISIBILITY IN STATUTE MILES
WCI - WIND CHILL INDEX
HX  - HEAT INDEX




USA.gov is the U.S. government's official web portal to all federal, state and local government web resources and services.